Regional Weather Roundup
Issued by NWS

Home | Current Version | Previous Version | Graphics & Text | Print | Product List | Glossary On
Versions: 1 2 3 4 5 6 7 8 9 10 11 12 13 14 15 16 17 18 19 20 21 22 23 24 25 26 27 28 29 30 31 32 33 34 35 36 37 38 39 40 41 42 43 44 45 46 47 48 49 50
228
ASUS43 KLSX 121957
RWRMO

WEATHER SUMMARY FOR MISSOURI
NATIONAL WEATHER SERVICE SPRINGFIELD MO
200 PM CST FRI FEB 12 2016

NOTE: "FAIR" INDICATES FEW OR NO CLOUDS BELOW 12,000 FEET WITH NO
       SIGNIFICANT WEATHER AND/OR OBSTRUCTIONS TO VISIBILITY.
       CURRENT SKY AND/OR WEATHER CONDITIONS ARE NOT AVAILABLE FOR
       CHILLICOTHE AND FARMINGTON.

MOZ001>031-035>038-043-044-053-054-122100-
...NORTHERN AND WESTERN MISSOURI...

CITY           SKY/WX    TMP DP  RH WIND       PRES   REMARKS
KANSAS CTY INT SUNNY     35  16  45 N18       30.44R WCI  24
LEE`S SUMMIT   SUNNY     36  14  40 N16       30.42R WCI  26
ST JOSEPH      SUNNY     33  12  41 N14G25    30.48S WCI  23
CHILLICOTHE      N/A     33  13  43 NW14G24   30.43R WCI  23

$$
MOZ066>068-077>081-088>096-101>105-122100-
...SOUTHWEST MISSOURI...

CITY           SKY/WX    TMP DP  RH WIND       PRES   REMARKS
SPRINGFIELD    SUNNY     45  22  40 N16G25    30.32S
JOPLIN         SUNNY     44  25  47 N14G25    30.38S

$$
MOZ032>034-039>042-045>050-055>058-069>072-122100-
...CENTRAL MISSOURI...

CITY           SKY/WX    TMP DP  RH WIND       PRES   REMARKS
COLUMBIA       NOT AVBL
JEFFERSON CITY MOSUNNY   36  19  50 W18       30.36F WCI  26
SEDALIA        SUNNY     38  18  44 NW20G25   30.39S WCI  28

$$
MOZ051-052-059>065-122100-
...EAST CENTRAL MISSOURI...

CITY           SKY/WX    TMP DP  RH WIND       PRES   REMARKS
ST LOUIS INTL  PTSUNNY   31  22  69 NW16      30.32R WCI  20

$$
MOZ072>076-082>087-097>100-106>115-122100-
...SOUTH CENTRAL AND SOUTHEAST MISSOURI...

CITY           SKY/WX    TMP DP  RH WIND       PRES   REMARKS
CAPE GIRARDEAU PTSUNNY   41  25  53 N14G24    30.27S
POPLAR BLUFF   SUNNY     47  25  42 W10G20    30.25S
WEST PLAINS    SUNNY     49  22  34 N13G22    30.27S

$$



USA.gov is the U.S. government's official web portal to all federal, state and local government web resources and services.